ARIANE 5 R/B, 40273

Orbit data source: Space-Track

ARIANE 5 R/B, 40273 is space debris in HEO originally from a launch on Thu, 16 Oct 2014 UTC launched from the French Guiana (FRGUI). Debris objects in space refer to the collection of defunct objects orbiting the Earth. Examples of debris include non-operational satellites, rocket bodies, and fragments generated from explosions, collisions, or faulty payload assembly.

Loading next visibility...
Identifier
40273, 2014-062C
Orbit
HEO
Country
Flag of FRFR
Related business
Manufacturer
ADS/LV
Mission
Spacecraft
Bus & Motor
ESC-A, Unknown motor
Mass
~5,000 kg wet, ~5,000 kg dry
Launch date (UTC)
2014-10-16 (11 years ago)
Launch vehicle
Unknown
Launch site
French Guiana (FRGUI)
Object type
Payload
Rocket body
Debris
Shape & HBR
Cyl + 1 Nozzle, 3.5 m
Radar Cross Section
41.627 m², Large (>1 m²)

Expand to show TLE details & history
Last TLE update: 14 hours ago

TLE from 14 hours ago
0 ARIANE 5 R/B
1 40273U 14062C   26062.44560594  .00007664  00000-0  14322-2 0  9999
2 40273   6.1132  98.4909 6986958 285.7400  12.1057  2.66681501101190
Epoch: 2026-03-03T10:41Z
TLE epoch observation values (Epoch: 2026-03-03T10:41:40.353Z)
Latitude
0.00001°
Longitude
137.1544°
Altitude
3,107.169 km
Speed
8.117 km/s
True Right ascension
06h 35m 11s
True Declination
0° 00' 00"
Sunlit
Object was in daylight at epoch
Visualization orbit readout
Latitude
Unknown
Longitude
Unknown
Altitude
Unknown
Speed
Unknown
Apparent Right ascension
Unknown
Apparent Declination
Unknown
Sunlit
N/A
Visualization observer readout
Local Sidereal Time
04:50:25
Azimuth
Unknown
Elevation
Unknown
Doppler factor
Unknown
Orbital elements
Apogee altitude
30,943.632 km
Perigee altitude
241.769 km
Semi-major axis
21,970.837 km
Eccentricity
0.6987
Inclination
6.1132°
RAAN
98.4909°
Arg. of periapsis
285.74°
True anomaly
73.90312°
Mean anomaly
12.1057°
Eccentric anomaly
35.15716°
Mean motion
0.66646 °/min
Orbital period
540.17 mins
BSTAR
0.0014322
Loading maneuver chart data...
Computing Atmospheric mass density...
Loading historical data...
Loading historical data...
Loading historical data...
Loading historical data...
Loading historical data...
Loading historical data...
Loading historical data...
Other satellites on launch #62 in the year 2014 (2014-10-16 UTC)

Documentation

Showing up to 5 results
|